Regional Weather Roundup
Issued by NWS Nashville, TN

Current Version | Previous Version | Text Only | Print | Product List | Glossary On
Versions: 1 2 3 4 5 6 7 8 9 10 11 12 13 14 15 16 17 18 19 20 21 22 23 24 25 26 27 28 29 30 31 32 33 34 35 36 37 38 39 40 41 42 43 44 45 46 47 48 49 50
288
ASUS44 KOHX 281310
RWROHX
MIDDLE TENNESSEE HOURLY WEATHER ROUNDUP
NATIONAL WEATHER SERVICE NASHVILLE TN
800 AM CDT SAT MAY 28 2016

NOTE: "FAIR" INDICATES FEW OR NO CLOUDS BELOW 12,000 FEET WITH
NO SIGNIFICANT WEATHER AND/OR OBSTRUCTIONS TO VISIBILITY.

* THESE REPORTS ARE NOT UNDER NWS QUALITY CONTROL AND MAY NOT
  REPORT WEATHER SUCH AS PRECIPITATION AND FOG.


TNZ005>011-023>034-057-059-062>066-078-080-281400
...NORTHERN MIDDLE TENNESSEE...

CITY           SKY/WX    TMP DP  RH WIND       PRES   REMARKS
CLARKSVILLE    CLOUDY    73  66  78 S6        30.04R
CROSSVILLE     MOSUNNY   72  60  66 S8        30.17R
DICKSON        CLOUDY    72  64  78 S5        30.06R
LEBANON        CLOUDY    72  64  75 SE6       30.07R
NASHVILLE      CLOUDY    74  63  68 S7        30.08R
SMYRNA         LGT RAIN  73  65  76 S7        30.09R
SPARTA         MOSUNNY   73  63  68 S5        30.11R
$$
TNZ056-058-060-061-075>077-079-093>097-281400
...SOUTHERN MIDDLE TENNESSEE...

CITY           SKY/WX    TMP DP  RH WIND       PRES   REMARKS
COLUMBIA       MOSUNNY   72  72 100 VRB3      30.06R
FAYETTEVILLE   MOSUNNY   72  61  68 S7        30.11R
LEWISBURG      CLOUDY    74  63  68 SE7       30.07R
MCMINNVILLE    SUNNY     73  63  68 CALM      30.12R
SHELBYVILLE    PTSUNNY   73  64  73 CALM      30.11R
TULLAHOMA      SUNNY     70  66  88 SE5       30.13R
WINCHESTER     SUNNY     70  61  73 SE7       30.12R
$$


...KEY TO REMARKS...
VSB - VISIBILITY IN MILES
WCI - WIND CHILL INDEX
HX  - HEAT INDEX





USA.gov is the U.S. government's official web portal to all federal, state and local government web resources and services.